Regional Weather Roundup
Issued by NWS

Home | Current Version | Previous Version | Text Only | Print | Product List | Glossary Off
Versions: 1 2 3 4 5 6 7 8 9 10 11 12 13 14 15 16 17 18 19 20 21 22 23 24 25 26 27 28 29 30 31 32 33 34 35 36 37 38 39 40 41 42 43 44 45 46 47 48 49 50

000
ASUS43 KDMX 061107
RWRIA

WEATHER ROUNDUP FOR IOWA
NATIONAL WEATHER SERVICE DES MOINES IA
600 AM CDT MON JUL 06 2015

NOTE: "FAIR" INDICATES FEW OR NO CLOUDS BELOW 12,000 FEET WITH NO
SIGNIFICANT WEATHER AND/OR OBSTRUCTIONS TO VISIBILITY.

* - THESE STATIONS ARE NOT NWS STATIONS...THUS NOT UNDER NWS
QUALITY CONTROL.  THEY ALSO DO NOT REPORT WEATHER SUCH
AS PRECIPITATION OR FOG.

IAZ001>003-012>014-020>022-031>034-043>046-061200-
   NORTHWEST IOWA

CITY           SKY/WX    TMP DP  RH WIND       PRES   REMARKS
CARROLL *      LGT RAIN  72  70  94 W10G21    29.84S
CHEROKEE *     CLOUDY    70  70 100 CALM      29.86R
DENISON *      HVY RAIN  70  70 100 NW8G17    29.84F
LE MARS *        N/A     70  70 100 S6        29.85R
ORANGE CITY *  DRIZZLE   68  68 100 CALM      29.84R
SHELDON *      CLOUDY    70  70 100 E6        29.82S
SIOUX CITY     LGT RAIN  72  69  90 CALM      29.86R
SPENCER        LGT RAIN  70  66  87 SE12      29.84F
STORM LAKE *   LGT RAIN  68  68 100 NE8       29.85F
$$

IAZ055>058-069>071-079>083-090>094-061200-
   SOUTHWEST IOWA

CITY           SKY/WX    TMP DP  RH WIND       PRES   REMARKS
ATLANTIC *     MOCLDY    77  75  94 W7        29.84R
AUDUBON *      MOCLDY    75  70  83 NW9G23    29.87R
CLARINDA *     MOCLDY    79  79 100 SW8G14    29.87R HX  83
COUNCIL BLFS * PTCLDY    75  72  88 NW9       29.87R
CRESTON *      MOCLDY    75  72  88 S12       29.86S
HARLAN  *      CLOUDY    75  75 100 N10G17    29.89R
LAMONI         CLOUDY    74  69  85 S9        29.88R
RED OAK *      LGT RAIN  77  75  94 S7        29.85R
SHENANDOAH *     N/A     79  73  83 S6        29.86R HX  82
$$

IAZ047>049-059>061-072>074-084-061200-
   CENTRAL IOWA

CITY           SKY/WX    TMP DP  RH WIND       PRES   REMARKS
AMES           TSTM      71  67  87 E5        29.83F
ANKENY *       CLOUDY    75  73  94 SE6       29.82F
CHARITON *     PTCLDY    73  68  83 S10G16    29.86S
DES MOINES     CLOUDY    78  71  79 SE6       29.83R THUNDER HX  80
GRINNELL*      HVY RAIN  70  68  94 CALM      29.91R
KNOXVILLE *    CLOUDY    73  68  83 SE5       29.86R
MARSHALLTOWN   TSTM      67  65  93 S28G35    29.88F FOG
PELLA *        CLOUDY    73  72  94 CALM      29.89R
PERRY *        CLOUDY    75  73  94 S5        29.81F
$$

IAZ004>006-015-016-023>025-035-036-061200-
   NORTH CENTRAL IOWA

CITY           SKY/WX    TMP DP  RH WIND       PRES   REMARKS
ALGONA *       RAIN      70  68  94 NW12      29.87S
CLARION *      HVY RAIN  72  68  88 NW16G24   29.87R
ESTHERVILLE    LGT RAIN  69  68  96 S9        29.86S
FORT DODGE *   CLOUDY    72  66  83 N7        29.85F
MASON CITY     LGT RAIN  73  70  90 W16       29.87R FOG
FOREST CITY *  LGT RAIN  72  70  94 W9G17     29.86R
IOWA FALLS *   CLOUDY    72  66  83 S20       29.84F
$$

IAZ007>011-017>019-026>030-037>042-050>054-066-061200-
   NORTHEAST IOWA

CITY           SKY/WX    TMP DP  RH WIND       PRES   REMARKS
CEDAR RAPIDS   CLOUDY    71  70  96 S9        29.88R FOG
CHARLES CITY * MOCLDY    72  72 100 SW7G15    29.86R FOG
CLINTON *      MOCLDY    68  64  88 S7        29.96R
DECORAH *        N/A    N/A N/A N/A MISG        N/A
DUBUQUE        CLOUDY    68  66  93 S9        29.91R FOG
MONTICELLO *   MOCLDY    70  70 100 SE7       29.90R FOG
OELWEIN *        N/A     70  70 100 S9        29.87F FOG
WATERLOO       CLOUDY    73  68  84 S9        29.82F
$$

IAZ064-065-067-068-078-061200-
   EAST CENTRAL IOWA

CITY           SKY/WX    TMP DP  RH WIND       PRES   REMARKS
DAVENPORT      MOCLDY    71  67  87 S9        29.92S FOG
IOWA CITY      CLOUDY    71  68  90 SE5       29.90R FOG
MT. PLEASANT * CLOUDY    73  70  88 S9        29.91R FOG
MUSCATINE *    CLEAR     70  68  94 CALM      29.90S FOG
QUAD CITIES    MOCLDY    72  67  84 S5        29.92S HAZE
$$

IAZ062-063-075>077-085>089-095>099-061200-
   SOUTHEAST IOWA

CITY           SKY/WX    TMP DP  RH WIND       PRES   REMARKS
BURLINGTON     MOCLDY    72  70  93 S8        29.92S FOG
FAIRFIELD *    CLEAR     72  68  88 S12       29.89S
FORT MADISON * CLEAR     72  70  94 S9        29.93R FOG
KEOKUK *       CLEAR     73  72  94 S12       29.91S
OSKALOOSA *      N/A     70  68  94 S8        29.87F
CENTERVILLE *  CLEAR     73  68  83 S12G17    29.90S
OTTUMWA        CLOUDY    72  69  90 S13       29.86R
WASHINGTON *   CLEAR     72  70  94 S9G15     29.90S FOG
$$

ABBREVIATIONS USED IN REMARKS
   TC - TEMPERATURES IN CELSIUS
  WCI - WIND CHILL INDEX
   HX - HEAT INDEX
  VSB - VISIBILITY
$$




USA.gov is the U.S. government's official web portal to all federal, state and local government web resources and services.